Home   Weather   Albury   Past weeks
Flag for Australia

Past Weather in Albury, New South Wales, Australia — Yesterday and Last 2 Weeks

Now
75 °F

Sunny.


Feels Like: 77 °F
Forecast: 76 / 47 °F
Wind: 8 mph from Southwest

Location: Albury Airport

Current Time: Oct 21, 2019 at 2:46:00 pm

Latest Report: Oct 21, 2019 at 2:00 pm


Visibility: N/A

Pressure: 30.24 "Hg

Humidity: 36%

Dew Point: 46 °F

Location of AlburyLocation

Past Weather in Albury — Graph

°F

Albury Temperature Yesterday

Maximum temperature yesterday: 66 °F (at 4:00 pm)
Minimum temperature yesterday: 41 °F (at 5:00 am)
Average temperature yesterday: 54 °F

High & Low Weather Summary for the Past Weeks

 TemperatureHumidityPressure
High84 °F (Oct 6, 3:00 pm)100% (Oct 8, 11:30 pm)30.33 "Hg (Oct 8, 11:30 pm)
Low37 °F (Oct 9, 5:00 am)23% (Oct 18, 6:00 pm)29.77 "Hg (Oct 6, 1:00 pm)
Average57 °F67%30.01 "Hg
* Reported Oct 6 1:00 pm — Oct 21 1:00 pm, Albury. Weather by CustomWeather, © 2019

Note: Actual official high and low records may vary slightly from our data, if they occured in-between our weather recording intervals... More about our weather records

Advertising

Albury Weather History for the Previous 24 Hours

Scroll right to see more
 ConditionsComfort  
Time TempWeatherWind HumidityBarometerVisibility
1:00 pm
Mon, Oct 21
73 °FSunny.6 mph38%30.27 "HgN/A
12:00 pm70 °FSunny.5 mph43%30.30 "HgN/A
11:00 am66 °FSunny.2 mph56%30.33 "HgN/A
10:00 am61 °FSunny.No wind63%30.33 "HgN/A
9:00 am55 °FSunny.No wind72%30.33 "HgN/A
8:00 am50 °FSunny.No wind88%30.33 "HgN/A
7:00 am46 °FSunny.1 mph93%30.30 "HgN/A
6:00 am46 °FClear.No wind93%30.27 "HgN/A
5:00 am46 °FClear.No wind93%30.27 "HgN/A
4:00 am46 °FClear.3 mph87%30.27 "HgN/A
3:00 am48 °FClear.3 mph82%30.27 "HgN/A
2:00 am48 °FClear.5 mph82%30.27 "HgN/A
1:00 am50 °FClear.No wind76%30.30 "HgN/A
12:00 am52 °FClear.5 mph72%30.30 "HgN/A
11:00 pm
Sun, Oct 20
52 °FClear.3 mph72%30.30 "HgN/A
10:00 pm55 °FClear.3 mph59%30.30 "HgN/A
9:00 pm57 °FClear.8 mph59%30.27 "HgN/A
8:00 pm59 °FClear.9 mph55%30.24 "HgN/A
7:00 pm63 °FSunny.12 mph45%30.24 "HgN/A
6:00 pm66 °FSunny.9 mph43%30.21 "HgN/A
5:00 pm66 °FSunny.10 mph43%30.21 "HgN/A
4:00 pm66 °FSunny.13 mph43%30.21 "HgN/A
3:00 pm64 °FSunny.13 mph46%30.21 "HgN/A
2:00 pm64 °FScattered clouds.14 mph43%30.21 "HgN/A
Weather by CustomWeather, © 2019

See weather overview